Regional Weather Roundup
Issued by NWS

Home | Current Version | Previous Version | Text Only | Print | Product List | Glossary On
Versions: 1 2 3 4 5 6 7 8 9 10 11 12 13 14 15 16 17 18 19 20 21 22 23 24 25 26 27 28 29 30 31 32 33 34 35 36 37 38 39 40 41 42 43 44 45 46 47 48 49 50
000
ASUS44 KFWD 212010
RWRTX
NORTH TEXAS HOURLY WEATHER ROUNDUP
NATIONAL WEATHER SERVICE FORT WORTH TX
200 PM CST SUN DEC 21 2014

NOTE: "FAIR" INDICATES FEW OR NO CLOUDS BELOW 12,000 FEET WITH NO
SIGNIFICANT WEATHER AND/OR OBSTRUCTIONS TO VISIBILITY.

TXZ118-119-212100-
DALLAS/FORT WORTH METROPLEX

CITY           SKY/WX    TMP DP  RH WIND       PRES   REMARKS
DFW AIRPORT    CLOUDY    50  44  80 S14       29.91F
DALLAS LOVE    CLOUDY    51  44  77 S10       29.93F
FTW MEACHAM    CLOUDY    51  45  79 S15       29.90F HAZE
DAL-EXECUTIVE  CLOUDY    53  44  71 S10       29.91F
FTW-ALLIANCE   CLOUDY    49  45  86 S13       29.90F
FTW-SPINKS     CLOUDY    52  46  82 S9        29.92F HAZE
ARLINGTON      CLOUDY    53  43  68 S10G18    29.91F
GRAND PRAIRIE  CLOUDY    50  46  87 S12       29.93F
MESQUITE       CLOUDY    52  43  71 SE12      29.95F
LANCASTER      CLOUDY    51  43  74 S14       29.94F
$$

TXZ091>094-102>105-117-120-121-131>134-212100-
NORTH CENTRAL TEXAS

CITY           SKY/WX    TMP DP  RH WIND       PRES   REMARKS
SHRMAN/DENISON CLOUDY    50  46  85 S12       29.91F
GAINESVILLE    CLOUDY    49  44  83 S14       29.90F
BOWIE          CLOUDY    48  46  90 SE13G21   29.85F FOG
BRIDGEPORT     CLOUDY    51  47  86 S15       29.90F
DECATUR        CLOUDY    48  47  96 S12       29.88F FOG
DENTON         CLOUDY    50  45  83 S12       29.90F
MCKINNEY       CLOUDY    50  44  80 S15       29.92F
GREENVILLE     CLOUDY    50  43  76 S12       29.95F
ROCKWALL       CLOUDY    50  44  80 S13       29.93F
TERRELL        CLOUDY    51  45  79 S10       29.95F
WAXAHACHIE     CLOUDY    51  47  85 SE14      29.93F
CLEBURNE         N/A     50  48  93 S12       29.92F
GRANBURY       CLOUDY    53  47  79 S12       29.91F
$$

TXZ083>090-098>101-113>116-127>130-139>142-154-155-212100-
WESTERN NORTH TEXAS

CITY           SKY/WX    TMP DP  RH WIND       PRES   REMARKS
WICHITA FALLS  CLOUDY    53  45  74 S20G26    29.80F
WF-KICKAPOO    CLOUDY    52  45  76 S13       29.82F
VERNON         CLOUDY    57  42  57 S17G23    29.76F
ABILENE        MOSUNNY   60  43  53 S24       29.82F
BRECKENRIDGE   PTSUNNY   58  45  60 S17G23    29.83F HAZE
GRAHAM         CLOUDY    54  46  76 S12G21    29.82F
MINERAL WELLS  CLOUDY    51  45  79 S12       29.86F
STEPHENVILLE   CLOUDY    52  45  76 SW14G22   29.91F
COMANCHE       CLOUDY    52  46  80 S18G24    29.89F
BROWNWOOD      CLOUDY    54  45  71 S15       29.89F
COLEMAN        PTSUNNY   56  46  70 S14G22    29.86F
BRADY          CLOUDY    54  45  71 S15       29.87F
$$

TXZ143>147-156>162-174-175-212100-
CENTRAL TEXAS

CITY           SKY/WX    TMP DP  RH WIND       PRES   REMARKS
WACO           CLOUDY    54  45  71 S16       29.94F
WACO-TSTC      CLOUDY    54  46  76 S14       29.95F
WACO-MCGREGOR  CLOUDY    54  45  71 S16       29.94F
HILLSBORO      CLOUDY    52  45  76 S14       29.93F
CORSICANA      CLOUDY    52  45  77 S15       29.96F
MEXIA          CLOUDY    51  46  82 S9        29.95F
HEARNE         CLOUDY    52  47  83 SE6       30.00F
CAMERON        CLOUDY    54  47  79 S6        29.97F
TEMPLE         CLOUDY    54  43  66 S15       29.93F
KILLEEN        CLOUDY    52  47  83 S14       29.93F
KILLEEN-SKYLRK CLOUDY    55  45  67 S12       29.92F
FORT HOOD      CLOUDY    54  47  77 S14       29.92F
GATESVILLE     PTSUNNY   54  46  76 S15       29.94F
HAMILTON       CLOUDY    53  48  83 S10G24    29.91F
$$

TXZ095>097-106>112-122>126-135>138-148>153-164>167-212100-
EAST TEXAS

CITY           SKY/WX    TMP DP  RH WIND       PRES   REMARKS
PARIS          CLOUDY    48  41  76 S15       29.96F
SULPHUR SPRNGS CLOUDY    51  43  75 S8        29.98F
MOUNT PLEASANT CLOUDY    51  42  72 S8        29.99F
MINEOLA        CLOUDY    52  45  76 SE5       29.98F
TYLER          CLOUDY    52  43  71 S12       29.97F
LONGVIEW       CLOUDY    50  43  77 S6        29.99F
MARSHALL       CLOUDY    55  47  76 S6        30.02F
ATHENS         CLOUDY    50  43  76 S10       29.96F
PALESTINE      CLOUDY    52  46  80 S6        30.00F
JACKSONVILLE   CLOUDY    51  45  79 S6        30.01F
HENDERSON      CLOUDY    50  45  84 S6        30.00F
NACOGDOCHES    CLOUDY    52  43  71 S5        30.02F
LUFKIN         CLOUDY    54  45  71 CALM      30.01F
$$

SUPPLEMENTAL OBSERVATIONS (CENTRAL)

CITY           SKY/WX    TMP DP  RH WIND       PRES   REMARKS
CADDO GRASSLND   N/A     48  41  76 S9G17       N/A
PAT MAYSE LAKE   N/A     48  43  81 SE12        N/A
GREENVILLE       N/A     48  41  76 S10         N/A
CEDAR HILL       N/A     52  45  76 S9          N/A
PALESTINE        N/A     52  45  76 S6          N/A
MCGREGOR         N/A     54  46  76 S15         N/A
TEMPLE           N/A     54  46  76 S15         N/A
$$

SUPPLEMENTAL OBSERVATIONS (WEST)

CITY           SKY/WX    TMP DP  RH WIND       PRES   REMARKS
MILLERS CREEK    N/A     63  54  72 S18G26      N/A
POSSUM KINGDOM   N/A     54  43  66 S14         N/A
LBJ GRASSLAND    N/A     48  45  87 S12         N/A
GRANBURY         N/A     52  45  76 S13         N/A
HAMBY            N/A     61  43  51 SW23        N/A
IVIE RESERVOIR   N/A     59  45  58 SW13        N/A
COLORADO BEND    N/A     54  46  76 S9          N/A
$$

SUPPLEMENTAL OBSERVATIONS (EAST)

CITY           SKY/WX    TMP DP  RH WIND       PRES   REMARKS
CLARKSVILLE      N/A     50  43  76 S15G22      N/A
TEXARKANA        N/A     57  41  54 S6          N/A
LINDEN           N/A     54  45  71 SE3         N/A
GILMER           N/A     50  43  76 S7          N/A
HENDERSON        N/A     50  43  76 S7          N/A
LUFKIN           N/A     54  45  71 MISG        N/A
N SABINE NF      N/A     61  48  63 MISG        N/A
S SABINE NF      N/A     57  46  67 NE6         N/A
$$

SUPPLEMENTAL OBSERVATIONS ARE A COLLECTION OF AUTOMATED INSTRUMENTS
THAT ARE MAINTAINED BY A VARIETY OF FEDERAL AND STATE AGENCIES.
CERTAIN ELEMENTS...SUCH AS HUMIDITY VALUES AND SUSTAINED WIND
SPEEDS...MAY BE APPROXIMATED.



USA.gov is the U.S. government's official web portal to all federal, state and local government web resources and services.